Atwater, CA

2:38 PM PST on January 22, 2017 (GMT -0800)
Castle

Weather History for KMER - April, 2013

Change the Weather History Date:

Thursday, April 25, 2013

  Actual Average (KMCE) Record (KMCE)
Temperature  
Mean Temperature 64 °F -  
Max Temperature 78 °F 75 °F 92 °F (2004)
Min Temperature 51 °F 45 °F 39 °F (2009)
Growing Degree Days 14 (Base 50)    
Moisture  
Dew Point 49 °F    
Average Humidity 71    
Maximum Humidity 100    
Minimum Humidity 32    
Precipitation  
Precipitation 0.00 in - - ()
Sea Level Pressure  
Sea Level Pressure 29.97 in    
Wind  
Wind Speed 8 mph (North)    
Max Wind Speed 12 mph    
Max Gust Speed -    
Visibility 10 miles    
Events      
Averages and records for this station are not official NWS values.
T = Trace of Precipitation, MM = Missing Value Source: NWS Daily Summary

Daily Weather History Graph

Daily Weather History Graph

Search for Another Location

Airport or City:

Trip Planner

Search our weather history database for the weather conditions in past years. The results will help you decide how hot, cold, wet, or windy it might be!

Date:

Astronomy

Apr. 25, 2013 Rise Set
Actual Time 6:14 AM PDT 7:46 PM PDT
Civil Twilight 5:46 AM PDT 8:14 PM PDT
Nautical Twilight 5:13 AM PDT 8:47 PM PDT
Astronomical Twilight 4:38 AM PDT 9:23 PM PDT
Moon 8:05 PM PDT (4/25) 6:00 AM PDT (4/25)
Length of Visible Light 14h 28m
Length of Day
13h 32m
Full, 100% of the Moon is Illuminated
Apr 25
Full
Apr 25
Full
May 2
Last Quarter
May 9
New
May 17
First Quarter

Hourly Weather History & Observations

Time (PDT) Temp. Dew Point Humidity Pressure Visibility Wind Dir Wind Speed Gust Speed Precip Events Conditions
12:15 AM 57.2 °F 46.4 °F 67% 29.88 in 10.0 mi North - - N/A   Clear
12:35 AM 57.2 °F 48.2 °F 72% 29.88 in 10.0 mi NW 8.1 mph - N/A   Clear
12:55 AM 57.2 °F 48.2 °F 72% 29.89 in 10.0 mi NW 8.1 mph - N/A   Clear
1:15 AM 55.4 °F 48.2 °F 77% 29.89 in 10.0 mi NW 8.1 mph - N/A   Clear
1:35 AM 55.4 °F 48.2 °F 77% 29.89 in 10.0 mi NW 6.9 mph - N/A   Clear
1:55 AM 55.4 °F 48.2 °F 77% 29.89 in 10.0 mi NW 6.9 mph - N/A   Clear
2:15 AM 55.4 °F 48.2 °F 77% 29.89 in 10.0 mi NNW 8.1 mph - N/A   Clear
2:35 AM 53.6 °F 48.2 °F 82% 29.89 in 10.0 mi North 6.9 mph - N/A   Clear
2:55 AM 53.6 °F 48.2 °F 82% 29.89 in 10.0 mi North 6.9 mph - N/A   Clear
3:15 AM 51.8 °F 48.2 °F 88% 29.89 in 10.0 mi North 9.2 mph - N/A   Clear
3:35 AM 51.8 °F 48.2 °F 88% 29.89 in 10.0 mi North 9.2 mph - N/A   Clear
3:55 AM 53.6 °F 48.2 °F 82% 29.90 in 10.0 mi North 9.2 mph - N/A   Clear
4:15 AM 53.6 °F 50.0 °F 88% 29.90 in 10.0 mi North 10.4 mph - N/A   Clear
4:35 AM 53.6 °F 50.0 °F 88% 29.91 in 10.0 mi North 10.4 mph - N/A   Clear
4:55 AM 53.6 °F 50.0 °F 88% 29.91 in 10.0 mi North 11.5 mph - N/A   Clear
5:15 AM 53.6 °F 50.0 °F 88% 29.92 in 10.0 mi North 10.4 mph - N/A   Clear
5:35 AM 53.6 °F 50.0 °F 88% 29.93 in 10.0 mi North 10.4 mph - N/A   Clear
5:55 AM 53.6 °F 50.0 °F 88% 29.94 in 10.0 mi North 10.4 mph - N/A   Clear
6:15 AM 51.8 °F 50.0 °F 94% 29.95 in 10.0 mi North 9.2 mph - N/A   Clear
6:35 AM 51.8 °F 50.0 °F 94% 29.97 in 10.0 mi North 9.2 mph - N/A   Clear
6:45 AM 51.8 °F 51.8 °F 100% 29.97 in 7.0 mi NNW 9.2 mph - N/A   Clear
6:55 AM 51.8 °F 51.8 °F 100% 29.98 in 10.0 mi North 9.2 mph - N/A   Clear
7:48 AM 57.2 °F 51.8 °F 82% 30.00 in 7.0 mi NNW 8.1 mph - N/A   Clear
9:45 AM 64.4 °F 48.2 °F 56% 30.04 in 10.0 mi NW 4.6 mph - N/A   Clear
10:45 AM 66.2 °F 48.2 °F 52% 30.05 in 10.0 mi North 6.9 mph - N/A   Clear
11:45 AM 69.8 °F 48.2 °F 46% 30.04 in 10.0 mi Variable 3.5 mph - N/A   Clear
1:45 PM 75.2 °F 48.2 °F 38% 30.02 in 10.0 mi NNW 9.2 mph - N/A   Clear
2:45 PM 78.8 °F 46.4 °F 32% 30.02 in 10.0 mi NW 9.2 mph - N/A   Clear
3:45 PM 78.8 °F 46.4 °F 32% 30.00 in 10.0 mi North 9.2 mph - N/A   Clear
4:45 PM 78.8 °F 46.4 °F 32% 29.99 in 10.0 mi North 9.2 mph - N/A   Clear
5:45 PM 78.8 °F 48.2 °F 34% 29.99 in 10.0 mi North 8.1 mph - N/A   Clear
6:45 PM 75.2 °F 46.4 °F 36% 29.99 in 10.0 mi North 9.2 mph - N/A   Clear
7:45 PM 69.8 °F 51.8 °F 53% 30.01 in 10.0 mi North 6.9 mph - N/A   Clear
8:45 PM 66.2 °F 51.8 °F 60% 30.03 in 10.0 mi North 10.4 mph - N/A   Clear
9:15 PM 64.4 °F 51.8 °F 64% 30.04 in 10.0 mi North 10.4 mph - N/A   Clear
9:35 PM 64.4 °F 51.8 °F 64% 30.05 in 10.0 mi North 9.2 mph - N/A   Clear
9:55 PM 62.6 °F 51.8 °F 68% 30.06 in 10.0 mi North 9.2 mph - N/A   Clear
10:15 PM 62.6 °F 51.8 °F 68% 30.06 in 10.0 mi NNE 8.1 mph - N/A   Clear
10:35 PM 60.8 °F 50.0 °F 68% 30.07 in 10.0 mi NNE 9.2 mph - N/A   Clear
10:55 PM 59.0 °F 50.0 °F 72% 30.07 in 10.0 mi NNE 6.9 mph - N/A   Clear
11:15 PM 57.2 °F 48.2 °F 72% 30.08 in 10.0 mi North 6.9 mph - N/A   Clear
11:35 PM 55.4 °F 48.2 °F 77% 30.08 in 10.0 mi North 6.9 mph - N/A   Clear
11:55 PM 55.4 °F 48.2 °F 77% 30.08 in 10.0 mi North 6.9 mph - N/A   Clear